Terug naar catalogus

USA 550

ActiefMilitairSSO
NORAD 65076·PAYLOAD·🇺🇸 United States

Gelanceerd Jul 31, 2025 vanaf Vandenberg Space Force Base

Loading…

Volgende Passages (komende 24 uur)

TLE

VerouderdSource: Mike McCants

Epoch: Aug 15, 2026, 22:53 UTC

1 65076U 25165W   26227.95376237 0.00000000  00000-0  00000-0 0    07
2 65076  97.6043 320.9674 0000604 287.5402  72.4596 15.40353194    02

Volg USA 550 in realtime met AllMySat

Download on the App Store